Alturas, CA

4:35 AM PDT on June 24, 2018 (GMT -0700)
Alturas Municipal

Weather History for KAAT - October, 2017

Change the Weather History Date:

Saturday, October 7, 2017

  Actual Average Record
Temperature  
Mean Temperature 51 °F 50 °F  
Max Temperature 74 °F 70 °F 92 °F (1915)
Min Temperature 27 °F 30 °F 19 °F (1941)
Degree Days  
Heating Degree Days 14 15  
Month to date heating degree days 130 100  
Since 1 July heating degree days 374 477  
Cooling Degree Days 0 0  
Month to date cooling degree days 0 0  
Year to date cooling degree days 516 156  
Moisture  
Dew Point 26 °F    
Average Humidity 44    
Maximum Humidity 69    
Minimum Humidity 19    
Precipitation  
Precipitation 0.00 in 0.02 in 0.61 in (2010)
Month to date precipitation 0.00 0.13  
Year to date precipitation 12.19 9.79  
Sea Level Pressure  
Sea Level Pressure 30.00 in    
Wind  
Wind Speed 5 mph (WNW)    
Max Wind Speed 18 mph    
Max Gust Speed 24 mph    
Visibility 10 miles    
Events      
T = Trace of Precipitation, MM = Missing Value Source: NWS Daily Summary

Daily Weather History Graph

Daily Weather History Graph

Search for Another Location

Airport or City:

Astronomy

Oct. 07, 2017 Rise Set
Actual Time 7:05 AM PDT 6:33 PM PDT
Civil Twilight 6:38 AM PDT 7:01 PM PDT
Nautical Twilight 6:06 AM PDT 7:33 PM PDT
Astronomical Twilight 5:33 AM PDT 8:05 PM PDT
Moon 8:14 PM PDT (10/7) 9:06 AM PDT (10/7)
Length of Visible Light 12h 22m
Length of Day
11h 27m
Waning Gibbous, 95% of the Moon is Illuminated
Oct 7
Waning Gibbous
Oct 12
Last Quarter
Oct 19
New
Oct 27
First Quarter
Nov 3
Full

Hourly Weather History & Observations

Time (PDT) Temp. Windchill Dew Point Humidity Pressure Visibility Wind Dir Wind Speed Gust Speed Precip Events Conditions
12:55 AM 39.0 °F - 25.0 °F 57% 30.08 in 10.0 mi Calm Calm - N/A   Clear
1:55 AM 35.1 °F - 25.0 °F 67% 30.08 in 7.0 mi Calm Calm - N/A   Clear
2:55 AM 34.0 °F - 23.0 °F 64% 30.06 in 10.0 mi Calm Calm - N/A   Clear
3:55 AM 32.0 °F - 21.9 °F 66% 30.06 in 10.0 mi Calm Calm - N/A   Clear
4:55 AM 32.0 °F - 23.0 °F 69% 30.06 in 10.0 mi Calm Calm - N/A   Clear
5:55 AM 28.9 °F - 19.9 °F 69% 30.06 in 10.0 mi Calm Calm - N/A   Clear
6:55 AM 28.9 °F - 19.9 °F 69% 30.09 in 10.0 mi Calm Calm - N/A   Clear
7:55 AM 35.1 °F - 23.0 °F 61% 30.08 in 10.0 mi Calm Calm - N/A   Clear
8:55 AM 41.0 °F - 24.1 °F 51% 30.07 in 10.0 mi Calm Calm - N/A   Clear
9:55 AM 51.1 °F - 24.1 °F 35% 30.05 in 10.0 mi Variable 3.5 mph - N/A   Clear
10:55 AM 59.0 °F - 27.0 °F 29% 30.02 in 10.0 mi ESE 4.6 mph - N/A   Clear
11:55 AM 64.9 °F - 28.0 °F 25% 29.98 in 10.0 mi Variable 3.5 mph - N/A   Clear
12:55 PM 69.1 °F - 27.0 °F 21% 29.96 in 10.0 mi West 12.7 mph 19.6 mph N/A   Clear
1:55 PM 71.1 °F - 28.0 °F 20% 29.93 in 10.0 mi NW 8.1 mph - N/A   Clear
2:55 PM 73.0 °F - 28.9 °F 20% 29.90 in 10.0 mi WNW 9.2 mph 20.7 mph N/A   Clear
3:55 PM 72.0 °F - 30.0 °F 21% 29.89 in 10.0 mi WNW 15.0 mph - N/A   Clear
4:55 PM 70.0 °F - 32.0 °F 25% 29.89 in 10.0 mi NW 16.1 mph - N/A   Clear
5:55 PM 64.0 °F - 28.9 °F 27% 29.91 in 10.0 mi NNW 16.1 mph 21.9 mph N/A   Clear
6:55 PM 60.1 °F - 27.0 °F 28% 29.94 in 10.0 mi WNW 15.0 mph 23.0 mph N/A   Clear
7:55 PM 55.9 °F - 26.1 °F 32% 29.95 in 10.0 mi WSW 8.1 mph - N/A   Clear
8:55 PM 51.1 °F - 25.0 °F 36% 29.95 in 10.0 mi West 6.9 mph - N/A   Clear
9:55 PM 48.0 °F - 27.0 °F 44% 29.95 in 10.0 mi Calm Calm - N/A   Clear
10:55 PM 46.9 °F - 30.9 °F 54% 29.96 in 10.0 mi West 6.9 mph - N/A   Clear
11:55 PM 42.1 °F 39.2 °F 30.0 °F 62% 29.97 in 10.0 mi North 4.6 mph - N/A   Clear